Date String (YYYY-MM-DD hh:mm:ss) UTC,Instrument flags,Ambient pressure (hPa),Sample flow (lpm),Bypass flow (lpm),Sample temperature (°C),Ambient temperature (°C),ASC tube jacket temperature (°C),LED temperature (°C),Box temperature (°C),Sample RH (%),Span deviation,Mass concentration (μg/m³),Mass concentration (μg/m³),Mass concentration (μg/m³)
DateTimeUTC,F1_M11,P_M11,Q1_M11,Q2_M11,T1_M11,T2_M11,T3_M11,T4_M11,T5_M11,U1_M11,ZSPAN_M11,X0_M11,X2_M11,X1_M11
2022-01-02 04:00:00,,0823.3,5.01,0.00,22.4,21.9,00.0,31.4,24.0,04.7,0000.0,0000.48,0000.11,0000.01
2022-01-02 04:01:00,,0823.3,5.00,0.00,22.3,21.8,00.0,31.4,23.9,04.6,0000.0,0000.48,0000.11,0000.01
2022-01-02 04:02:00,,0823.4,4.99,0.00,22.3,21.7,00.0,31.4,23.9,04.8,0000.0,0000.47,0000.11,0000.01
2022-01-02 04:03:00,,0823.4,5.02,0.00,22.3,21.9,00.0,31.4,23.9,04.5,0000.0,0000.47,0000.11,0000.01
2022-01-02 04:04:00,,0823.3,4.99,0.00,22.4,22.5,00.0,31.4,24.1,04.3,0000.0,0000.78,0000.12,0000.01
2022-01-02 04:05:00,,0823.4,5.00,0.00,22.5,23.3,00.0,31.4,24.4,04.5,0000.0,0001.66,0000.08,0000.01
2022-01-02 04:06:00,,0823.3,5.00,0.00,22.7,23.6,00.0,31.5,24.6,04.5,0000.0,0001.59,0000.07,0000.01
2022-01-02 04:07:00,,0823.3,5.00,0.00,22.7,23.3,00.0,31.5,24.5,04.6,0000.0,0001.56,0000.06,0000.01
2022-01-02 04:08:00,,0823.4,5.00,0.00,22.7,23.0,00.0,31.5,24.5,04.4,0000.0,0001.55,0000.05,0000.01
2022-01-02 04:09:00,,0823.4,5.00,0.00,22.6,22.7,00.0,31.5,24.3,04.4,0000.0,0001.55,0000.05,0000.01
2022-01-02 04:10:00,,0823.3,5.01,0.00,22.6,22.5,00.0,31.5,24.2,04.5,0000.0,0002.47,0000.06,0000.00
2022-01-02 04:11:00,,0823.3,4.99,0.00,22.5,22.3,00.0,31.5,24.2,04.5,0000.0,0002.72,0000.06,0000.00
2022-01-02 04:12:00,,0823.3,4.99,0.00,22.5,22.1,00.0,31.5,24.1,04.5,0000.0,0002.82,0000.09,0000.00
2022-01-02 04:13:00,,0823.3,5.02,0.00,22.4,21.9,00.0,31.5,24.0,04.6,0000.0,0002.83,0000.09,0000.00
2022-01-02 04:14:00,,0823.4,4.98,0.00,22.4,21.8,00.0,31.5,23.9,04.6,0000.0,0002.83,0000.09,0000.00
2022-01-02 04:15:00,,0823.4,5.00,0.00,22.3,21.8,00.0,31.4,23.9,04.3,0000.0,0002.41,0000.07,0000.00
2022-01-02 04:16:00,,0823.3,5.00,0.00,22.4,22.4,00.0,31.5,24.1,04.5,0000.0,0001.65,0000.08,0000.00
2022-01-02 04:17:00,,0823.3,5.00,0.00,22.6,23.1,00.0,31.5,24.4,04.5,0000.0,0001.54,0000.06,0000.00
2022-01-02 04:18:00,,0823.4,5.00,0.00,22.7,23.3,00.0,31.5,24.5,04.3,0000.0,0001.54,0000.06,0000.00
2022-01-02 04:19:00,,0823.3,5.00,0.00,22.7,23.0,00.0,31.5,24.5,04.6,0000.0,0001.54,0000.06,0000.01
2022-01-02 04:20:00,,0823.3,5.00,0.00,22.7,22.7,00.0,31.5,24.4,04.7,0000.0,0001.67,0000.07,0000.01
2022-01-02 04:21:00,,0823.4,4.99,0.00,22.6,22.5,00.0,31.5,24.3,04.7,0000.0,0000.82,0000.08,0000.01
2022-01-02 04:22:00,,0823.4,5.01,0.00,22.6,22.3,00.0,31.5,24.2,04.7,0000.0,0000.82,0000.11,0000.01
2022-01-02 04:23:00,,0823.4,4.99,0.00,22.5,22.1,00.0,31.5,24.1,04.7,0000.0,0000.92,0000.08,0000.01
2022-01-02 04:24:00,,0823.5,5.01,0.00,22.5,21.9,00.0,31.5,24.0,04.6,0000.0,0001.19,0000.11,0000.01
2022-01-02 04:25:00,,0823.4,4.99,0.00,22.4,21.8,00.0,31.5,23.9,04.6,0000.0,0001.20,0000.12,0000.01
2022-01-02 04:26:00,,0823.4,5.00,0.00,22.4,22.0,00.0,31.5,24.0,04.7,0000.0,0001.23,0000.13,0000.01
2022-01-02 04:27:00,,0823.4,5.00,0.00,22.5,22.7,00.0,31.5,24.2,04.8,0000.0,0001.08,0000.15,0000.01
2022-01-02 04:28:00,,0823.4,5.00,0.00,22.6,23.3,00.0,31.5,24.5,04.8,0000.0,0001.07,0000.16,0000.02
2022-01-02 04:29:00,,0823.5,5.00,0.00,22.7,23.3,00.0,31.6,24.5,04.7,0000.0,0001.08,0000.17,0000.01
2022-01-02 04:30:00,,0823.4,5.00,0.00,22.7,23.0,00.0,31.6,24.4,04.7,0000.0,0001.10,0000.17,0000.01
2022-01-02 04:31:00,,0823.4,4.99,0.00,22.7,22.7,00.0,31.6,24.3,04.6,0000.0,0001.90,0000.18,0000.01
2022-01-02 04:32:00,,0823.4,5.02,0.00,22.6,22.4,00.0,31.6,24.2,04.7,0000.0,0002.00,0000.18,0000.01
2022-01-02 04:33:00,,0823.4,4.99,0.00,22.6,22.2,00.0,31.6,24.1,04.6,0000.0,0001.85,0000.17,0000.01
2022-01-02 04:34:00,,0823.4,4.99,0.00,22.5,22.0,00.0,31.5,24.1,04.6,0000.0,0001.69,0000.17,0000.01
2022-01-02 04:35:00,,0823.4,5.02,0.00,22.4,21.8,00.0,31.5,24.0,04.5,0000.0,0001.39,0000.14,0000.01
2022-01-02 04:36:00,,0823.3,5.01,0.00,22.4,21.7,00.0,31.5,23.9,04.5,0000.0,0001.37,0000.14,0000.01
2022-01-02 04:37:00,,0823.4,4.99,0.00,22.4,22.1,00.0,31.5,24.1,04.2,0000.0,0001.34,0000.12,0000.01
2022-01-02 04:38:00,,0823.4,5.00,0.00,22.5,22.9,00.0,31.5,24.3,04.0,0000.0,0001.30,0000.10,0000.01
2022-01-02 04:39:00,,0823.5,4.99,0.00,22.7,23.5,00.0,31.6,24.6,03.9,0000.0,0001.27,0000.09,0000.01
2022-01-02 04:40:00,,0823.5,5.00,0.00,22.8,23.5,00.0,31.6,24.6,03.9,0000.0,0001.25,0000.08,0000.01
2022-01-02 04:41:00,,0823.4,5.01,0.00,22.8,23.2,00.0,31.6,24.6,03.9,0000.0,0001.14,0000.07,0000.01
2022-01-02 04:42:00,,0823.4,5.00,0.00,22.7,22.9,00.0,31.6,24.5,03.9,0000.0,0000.27,0000.06,0000.01
2022-01-02 04:43:00,,0823.4,5.00,0.00,22.7,22.6,00.0,31.6,24.3,03.9,0000.0,0000.18,0000.07,0000.01
2022-01-02 04:44:00,,0823.4,5.01,0.00,22.6,22.3,00.0,31.6,24.2,04.0,0000.0,0000.22,0000.05,0000.01
2022-01-02 04:45:00,,0823.4,4.99,0.00,22.6,22.1,00.0,31.6,24.1,04.1,0000.0,0000.23,0000.06,0000.01
2022-01-02 04:46:00,,0823.4,5.00,0.00,22.5,21.9,00.0,31.6,24.0,04.2,0000.0,0000.27,0000.07,0000.01
2022-01-02 04:47:00,,0823.4,5.00,0.00,22.4,21.8,00.0,31.6,24.0,04.4,0000.0,0000.29,0000.08,0000.01
2022-01-02 04:48:00,,0823.3,4.99,0.00,22.4,21.8,00.0,31.5,23.9,04.4,0000.0,0000.43,0000.13,0000.01
2022-01-02 04:49:00,,0823.4,5.01,0.00,22.5,22.3,00.0,31.5,24.1,04.4,0000.0,0000.48,0000.15,0000.02
2022-01-02 04:50:00,,0823.4,5.00,0.00,22.6,23.0,00.0,31.6,24.4,04.1,0000.0,0000.48,0000.15,0000.02
2022-01-02 04:51:00,,0823.4,4.99,0.00,22.7,23.3,00.0,31.6,24.5,04.2,0000.0,0000.48,0000.15,0000.02
2022-01-02 04:52:00,,0823.3,5.01,0.00,22.7,23.0,00.0,31.6,24.5,04.6,0000.0,0000.48,0000.15,0000.02
2022-01-02 04:53:00,,0823.3,4.99,0.00,22.7,22.7,00.0,31.6,24.4,05.0,0000.0,0000.46,0000.15,0000.02
2022-01-02 04:54:00,,0823.4,5.00,0.00,22.7,22.5,00.0,31.6,24.3,04.8,0000.0,0000.56,0000.12,0000.01
2022-01-02 04:55:00,,0823.3,4.99,0.00,22.6,22.2,00.0,31.6,24.2,04.3,0000.0,0000.96,0000.14,0000.01
2022-01-02 04:56:00,,0823.3,5.01,0.00,22.5,22.1,00.0,31.6,24.1,04.4,0000.0,0001.05,0000.16,0000.01
2022-01-02 04:57:00,,0823.3,4.99,0.00,22.5,21.9,00.0,31.6,24.0,04.6,0000.0,0001.04,0000.16,0000.01
2022-01-02 04:58:00,,0823.3,5.01,0.00,22.4,21.8,00.0,31.5,24.0,04.7,0000.0,0001.01,0000.14,0000.01
2022-01-02 04:59:00,,0823.4,4.99,0.00,22.4,21.9,00.0,31.5,24.0,04.6,0000.0,0000.90,0000.09,0000.01
